Stations météo

réclame
Mon MeteoGroup
Kvarn, Suède (2561): Température de l'air & dewpoint: 11.10.2018 05:00:00 - 17.10.2018 05:00:00 (CEST)Kvarn, Suède (2561): Vitesse du vent & gusts: 11.10.2018 05:00:00 - 17.10.2018 05:00:00 (CEST)Kvarn, Suède (2561): Direction du vent: 11.10.2018 05:00:00 - 17.10.2018 05:00:00 (CEST)Kvarn, Suède (2561): reduced air pressure: 11.10.2018 05:00:00 - 17.10.2018 05:00:00 (CEST)Kvarn, Suède (2561): visibility: 11.10.2018 05:00:00 - 17.10.2018 05:00:00 (CEST)Kvarn, Suède (2561): Quantités de précipitations: 11.10.2018 05:00:00 - 17.10.2018 05:00:00 (CEST)
Date & Time tt [°C] td [°C] ff [km/h] ff [knt] fx [km/h] fx [knt] dd ppp [hPa] vv [km] rr [mm]
17.10.2018 05:00:00 - - - - - - - - - -
17.10.2018 04:00:00 11,5 11,5 0 0 7 4 N 1017,3 13 0,0
17.10.2018 03:00:00 10,8 10,8 0 0 0 0 N 1017,6 13 0,0
17.10.2018 02:00:00 10,3 10,3 0 0 0 0 N 1017,6 9 0,0
17.10.2018 01:00:00 11,1 10,9 0 0 7 4 N 1017,6 12 0,0
17.10.2018 00:00:00 11,4 11,2 4 2 7 4 ESE 1018,0 14 0,0
16.10.2018 23:00:00 11,4 11,1 0 0 4 2 N 1018,4 13 0,0
16.10.2018 22:00:00 11,4 11,1 0 0 11 6 N 1018,5 12 0,0
16.10.2018 21:00:00 11,3 11,0 7 4 14 8 E 1018,6 10 0,0
16.10.2018 20:00:00 11,8 11,2 4 2 14 8 E 1018,7 14 0,0
16.10.2018 19:00:00 12,9 12,0 7 4 14 8 E 1018,5 21 0,0
16.10.2018 18:00:00 12,9 12,1 0 0 4 2 N 1018,3 35 0,0
16.10.2018 17:00:00 13,4 11,6 0 0 7 4 N 1018,3 45 0,0
16.10.2018 16:00:00 15,6 11,8 4 2 11 6 ESE 1018,3 40 0,0
16.10.2018 15:00:00 15,1 11,4 4 2 11 6 E 1018,5 40 0,0
16.10.2018 14:00:00 14,6 11,2 0 0 7 4 N 1018,5 45 0,0
16.10.2018 13:00:00 14,3 11,3 4 2 7 4 E 1018,4 40 0,0
16.10.2018 12:00:00 12,2 11,4 0 0 7 4 N 1018,5 40 0,0
16.10.2018 11:00:00 11,2 11,2 0 0 4 2 N 1018,5 28 0,0
16.10.2018 10:00:00 10,5 10,5 0 0 4 2 N 1018,2 10 0,0
16.10.2018 09:00:00 9,7 9,7 0 0 4 2 N 1017,7 8 0,0
16.10.2018 08:00:00 7,6 7,6 0 0 0 0 N 1017,1 10 0,0
16.10.2018 07:00:00 7,1 7,1 0 0 4 2 N 1016,6 9 0,0
16.10.2018 06:00:00 6,5 6,5 0 0 4 2 N 1016,4 9 0,0
16.10.2018 05:00:00 5,7 5,7 0 0 4 2 N 1016,1 6 0,0
16.10.2018 04:00:00 5,7 5,7 0 0 4 2 N 1015,5 7 0,0
16.10.2018 03:00:00 5,7 5,7 0 0 0 0 N 1015,1 7 0,0
16.10.2018 02:00:00 6,2 6,2 0 0 4 2 N 1015,2 5 0,0
16.10.2018 01:00:00 7,1 7,1 0 0 4 2 N 1015,0 10 0,0
16.10.2018 00:00:00 7,7 7,7 0 0 7 4 N 1014,7 9 0,0
15.10.2018 23:00:00 8,0 8,0 0 0 7 4 N 1014,4 12 0,0
15.10.2018 22:00:00 8,0 8,0 0 0 4 2 N 1013,9 12 0,0
15.10.2018 21:00:00 8,7 8,7 0 0 4 2 N 1013,9 10 0,0
15.10.2018 20:00:00 9,7 9,6 0 0 4 2 N 1013,7 17 0,0
15.10.2018 19:00:00 11,5 10,9 0 0 4 2 N 1013,5 20 0,0
15.10.2018 18:00:00 13,8 11,8 0 0 4 2 N 1013,4 27 0,0
15.10.2018 17:00:00 17,7 11,3 0 0 18 10 N 1012,8 40 0,0
15.10.2018 16:00:00 21,2 12,1 4 2 14 8 SSE 1012,4 30 0,0
15.10.2018 15:00:00 21,9 11,3 4 2 18 10 S 1012,6 30 0,0
15.10.2018 14:00:00 21,5 11,5 7 4 18 10 S 1013,2 35 0,0
15.10.2018 13:00:00 20,0 12,5 4 2 14 8 S 1013,4 30 0,0
15.10.2018 12:00:00 17,6 11,8 4 2 14 8 SW 1013,6 30 0,0
15.10.2018 11:00:00 14,9 12,6 4 2 11 6 S 1014,1 30 0,0
15.10.2018 10:00:00 8,8 8,8 0 0 4 2 N 1014,0 14 0,0
15.10.2018 09:00:00 5,0 5,0 0 0 0 0 N 1014,1 6 0,0
15.10.2018 08:00:00 4,0 4,0 0 0 0 0 N 1014,0 2,5 0,0
15.10.2018 07:00:00 4,4 4,4 0 0 7 4 N 1013,9 2,1 0,0
15.10.2018 06:00:00 5,4 5,4 0 0 7 4 N 1013,5 5 0,0
15.10.2018 05:00:00 6,0 6,0 0 0 4 2 N 1013,4 7 0,0
15.10.2018 04:00:00 6,5 6,5 0 0 7 4 N 1013,2 7 0,0
15.10.2018 03:00:00 6,1 6,1 0 0 4 2 N 1013,2 8 0,0
15.10.2018 02:00:00 6,5 6,5 0 0 4 2 N 1013,1 7 0,0
15.10.2018 01:00:00 7,4 7,4 0 0 4 2 N 1013,4 7 0,0
15.10.2018 00:00:00 8,6 8,5 0 0 7 4 N 1013,3 13 0,0
14.10.2018 23:00:00 9,5 9,0 0 0 7 4 N 1013,3 15 0,0
14.10.2018 22:00:00 10,1 9,3 4 2 7 4 SE 1013,1 17 0,0
14.10.2018 21:00:00 12,8 10,3 4 2 14 8 SSE 1013,1 22 0,0
14.10.2018 20:00:00 14,2 10,2 7 4 14 8 SE 1012,9 30 0,0
14.10.2018 19:00:00 14,8 10,6 4 2 18 10 SE 1013,6 30 0,0
14.10.2018 18:00:00 14,8 10,6 4 2 11 6 ESE 1014,0 23 0,0
14.10.2018 17:00:00 17,1 10,9 4 2 11 6 SE 1014,3 30 0,0
14.10.2018 16:00:00 20,0 11,2 4 2 14 8 SE 1014,5 30 0,0
14.10.2018 15:00:00 20,7 11,6 4 2 18 10 SE 1015,1 35 0,0
14.10.2018 14:00:00 20,2 11,9 7 4 14 8 SE 1015,6 28 0,0
14.10.2018 13:00:00 19,5 12,5 4 2 18 10 SSE 1016,2 26 0,0
14.10.2018 12:00:00 17,6 12,5 4 2 14 8 SSE 1017,0 21 0,0
14.10.2018 11:00:00 15,1 12,0 7 4 14 8 S 1017,9 19 0,0
14.10.2018 10:00:00 12,3 12,3 4 2 14 8 SSE 1018,1 16 0,0
14.10.2018 09:00:00 6,9 6,9 0 0 0 0 N 1018,4 5 0,0
14.10.2018 08:00:00 6,6 6,6 0 0 0 0 N 1018,4 0,9 0,0
14.10.2018 07:00:00 8,2 8,2 0 0 4 2 N 1018,6 0,9 0,0
14.10.2018 06:00:00 9,2 9,2 0 0 7 4 N 1019,1 4,9 0,0
14.10.2018 05:00:00 10,2 10,2 0 0 11 6 N 1019,2 9 0,0
14.10.2018 04:00:00 10,8 10,8 4 2 11 6 S 1019,6 15 0,0
14.10.2018 03:00:00 10,7 10,7 4 2 7 4 SSE 1019,9 14 0,0
14.10.2018 02:00:00 10,6 10,6 0 0 7 4 N 1020,3 11 0,0
14.10.2018 01:00:00 11,5 11,5 0 0 7 4 N 1020,2 11 0,0
14.10.2018 00:00:00 13,2 12,9 0 0 11 6 N 1019,9 27 0,0
13.10.2018 23:00:00 14,6 13,6 4 2 11 6 SSE 1020,0 30 0,0
13.10.2018 22:00:00 14,1 13,5 0 0 7 4 N 1020,2 30 0,0
13.10.2018 21:00:00 14,3 13,8 0 0 7 4 N 1020,5 30 0,0
13.10.2018 20:00:00 14,2 13,7 0 0 11 6 N 1020,4 30 0,0
13.10.2018 19:00:00 14,3 13,8 0 0 7 4 N - 27 0,0
13.10.2018 18:00:00 15,9 14,8 0 0 7 4 N 1020,2 26 0,0
13.10.2018 17:00:00 17,8 15,4 0 0 7 4 N 1020,0 40 0,0
13.10.2018 16:00:00 19,2 15,7 0 0 11 6 N 1020,2 40 0,0
13.10.2018 15:00:00 19,9 15,5 4 2 11 6 SSE 1020,4 35 0,0
13.10.2018 14:00:00 17,8 15,5 0 0 7 4 N 1020,7 30 0,0
13.10.2018 13:00:00 18,8 15,1 4 2 14 8 S 1020,9 30 0,0
13.10.2018 12:00:00 17,8 14,3 7 4 14 8 SSW 1021,2 35 0,0
13.10.2018 11:00:00 - - - - - - - - - -
13.10.2018 10:00:00 13,5 13,5 4 2 11 6 SSE 1021,3 15 0,0
13.10.2018 09:00:00 11,3 11,3 4 2 11 6 S 1021,2 10 0,0
13.10.2018 08:00:00 9,6 9,6 4 2 11 6 SSW 1021,5 5 0,0
13.10.2018 07:00:00 8,3 8,3 0 0 4 2 N 1021,6 0,7 0,0
13.10.2018 06:00:00 8,4 8,4 0 0 7 4 N 1021,5 0,4 0,0
13.10.2018 05:00:00 8,6 8,6 0 0 7 4 N 1021,8 0,6 0,0
13.10.2018 04:00:00 8,8 8,8 0 0 7 4 N 1022,0 1,2 0,0
13.10.2018 03:00:00 7,1 7,1 0 0 7 4 N 1022,0 2,7 0,0
13.10.2018 02:00:00 6,8 6,8 0 0 4 2 N 1022,3 2,8 0,0
13.10.2018 01:00:00 7,3 7,3 0 0 0 0 N 1021,9 5 0,0
13.10.2018 00:00:00 8,3 8,3 0 0 0 0 N 1022,0 2,9 0,0
12.10.2018 23:00:00 9,4 9,4 0 0 0 0 N 1021,8 2,1 0,0
12.10.2018 22:00:00 11,1 11,1 0 0 7 4 N 1021,5 9 0,0
12.10.2018 21:00:00 12,2 12,2 0 0 7 4 N 1021,0 11 0,0
12.10.2018 20:00:00 12,3 12,3 0 0 7 4 N 1021,1 10 0,0
12.10.2018 19:00:00 13,1 12,8 4 2 7 4 S 1021,0 13 0,0
12.10.2018 18:00:00 13,3 12,7 0 0 7 4 N 1020,5 11 0,0
12.10.2018 17:00:00 16,4 13,3 4 2 11 6 ESE 1020,1 20 0,0
12.10.2018 16:00:00 18,1 13,8 4 2 14 8 ESE 1020,3 21 0,0
12.10.2018 15:00:00 17,8 13,1 4 2 14 8 SE 1020,7 19 0,0
12.10.2018 14:00:00 16,9 12,4 7 4 18 10 SE 1021,2 19 0,0
12.10.2018 13:00:00 15,9 12,5 7 4 14 8 SSE 1021,6 17 0,0
12.10.2018 12:00:00 13,2 11,9 7 4 14 8 SSE 1021,9 11 0,0
12.10.2018 11:00:00 10,4 10,4 4 2 11 6 ESE 1022,3 6 0,0
12.10.2018 10:00:00 9,8 9,8 4 2 7 4 ESE 1022,3 2,3 0,0
12.10.2018 09:00:00 9,0 9,0 4 2 11 6 ESE 1022,3 0,4 0,0
12.10.2018 08:00:00 8,9 8,9 0 0 7 4 N 1022,2 0,3 0,0
12.10.2018 07:00:00 8,6 8,6 0 0 7 4 N 1022,2 0,9 0,0
12.10.2018 06:00:00 8,5 8,5 0 0 7 4 N 1021,7 0,3 0,0
12.10.2018 05:00:00 8,8 8,8 4 2 11 6 SSE 1021,7 1,3 0,0
12.10.2018 04:00:00 8,9 8,9 4 2 11 6 E 1022,1 1,1 0,0
12.10.2018 03:00:00 8,5 8,5 4 2 7 4 ESE 1022,8 1,4 0,0
12.10.2018 02:00:00 7,3 7,3 4 2 7 4 E 1023,6 1,4 0,0
12.10.2018 01:00:00 6,7 6,7 0 0 7 4 N 1023,9 1,5 0,0
12.10.2018 00:00:00 7,4 7,4 0 0 7 4 N 1023,9 1,6 0,0
11.10.2018 23:00:00 8,5 8,5 0 0 14 8 N 1023,9 2,0 0,0
11.10.2018 22:00:00 9,9 9,7 7 4 14 8 ESE 1023,6 5 0,0
11.10.2018 21:00:00 9,9 9,7 4 2 14 8 E 1024,1 7 0,0
11.10.2018 20:00:00 10,1 9,9 4 2 14 8 ESE 1024,5 8 0,0
11.10.2018 19:00:00 10,0 9,7 4 2 11 6 ESE 1024,6 9 0,0
11.10.2018 18:00:00 9,9 9,6 4 2 11 6 ENE 1024,4 12 0,0
11.10.2018 17:00:00 12,4 10,6 4 2 18 10 E 1024,4 22 0,0
11.10.2018 16:00:00 15,3 11,3 7 4 22 12 E 1024,5 18 0,0
11.10.2018 15:00:00 15,9 12,1 11 6 18 10 ESE 1025,2 14 0,0
11.10.2018 14:00:00 16,1 11,7 4 2 18 10 SE 1025,5 15 0,0
11.10.2018 13:00:00 15,2 10,0 7 4 18 10 ESE 1026,0 16 0,0
11.10.2018 12:00:00 13,6 10,0 7 4 14 8 ESE 1026,6 10 0,0
11.10.2018 11:00:00 10,0 10,0 4 2 7 4 SE 1026,8 11 0,0
11.10.2018 10:00:00 5,8 5,8 0 0 0 0 N 1027,2 2,2 0,0
11.10.2018 09:00:00 2,2 2,2 0 0 0 0 N 1027,1 0,3 0,0
11.10.2018 08:00:00 0,6 0,6 0 0 0 0 N 1027,0 0,2 0,0
11.10.2018 07:00:00 0,7 0,7 0 0 0 0 N 1026,8 0,5 0,0
11.10.2018 06:00:00 1,5 1,5 0 0 0 0 N 1026,6 2,4 0,0
11.10.2018 05:00:00 2,2 2,2 0 0 0 0 N 1026,9 0,2 0,0

tt = Température de l'air
td = dewpoint
ff = Vitesse du vent
fx = gusts
dd = Direction du vent
ppp = reduced air pressure
vv = visibility
rr = Quantités de précipitations

stations d'obs. à proximité